This is the latest recevied weather packets stored in our database for station/object AI5BL. If no packets are shown the sender has not sent any weather packets the latest 10 day(s).
| Time | Temp. | Humidity | Pressure | Rain* | Wind** | Luminosity | Snow |
|---|---|---|---|---|---|---|---|
| 1788657795 | 26.67° C | 92% | 1014.2 hPa | 0 mm | - | 0 W/m² | - |
| 1788657490 | 26.67° C | 91% | 1014.4 hPa | 0 mm | - | 0 W/m² | - |
| 1788657189 | 26.67° C | 90% | 1014.1 hPa | 0 mm | - | 0 W/m² | - |
| 1788656886 | 26.67° C | 90% | 1014.1 hPa | 0 mm | - | 0 W/m² | - |
| 1788656581 | 26.67° C | 92% | 1014 hPa | 0 mm | - | 0 W/m² | - |
| 1788656276 | 26.67° C | 89% | 1014 hPa | 0 mm | - | 0 W/m² | - |
| 1788655975 | 26.67° C | 89% | 1013.7 hPa | 0 mm | - | 0 W/m² | - |
| 1788655674 | 26.67° C | 89% | 1013.5 hPa | 0 mm | - | 0 W/m² | - |
| 1788655370 | 27.22° C | 89% | 1013.5 hPa | 0 mm | - | 0 W/m² | - |
| 1788655070 | 27.22° C | 89% | 1013.5 hPa | 0 mm | - | 0 W/m² | - |
| 1788654765 | 27.78° C | 89% | 1013.6 hPa | 0 mm | - | 0 W/m² | - |
| 1788654461 | 27.78° C | 85% | 1013.7 hPa | 0 mm | - | 0 W/m² | - |
| 1788654160 | 27.78° C | 84% | 1013.6 hPa | 0 mm | - | 0 W/m² | - |
| 1788653856 | 28.33° C | 83% | 1013.7 hPa | 0 mm | - | 1 W/m² | - |
| 1788653551 | 28.33° C | 83% | 1013.8 hPa | 0 mm | - | 2 W/m² | - |
| 1788653246 | 28.33° C | 83% | 1014 hPa | 0 mm | - | 3 W/m² | - |
| 1788652946 | 28.33° C | 83% | 1014 hPa | 0 mm | - | 4 W/m² | - |
| 1788652641 | 28.33° C | 85% | 1014 hPa | 0 mm | - | 6 W/m² | - |
| 1788652336 | 28.89° C | 81% | 1013.8 hPa | 0 mm | - | 9 W/m² | - |
| 1788652031 | 28.89° C | 82% | 1014.2 hPa | 0 mm | - | 11 W/m² | - |
| 1788651727 | 29.44° C | 82% | 1013.7 hPa | 0 mm | - | 13 W/m² | - |
| 1788651422 | 29.44° C | 80% | 1013.8 hPa | 0 mm | - | 16 W/m² | - |
| 1788651121 | 29.44° C | 79% | 1013.8 hPa | 0 mm | - | 16 W/m² | - |
| 1788650816 | 29.44° C | 80% | 1013.7 hPa | 0 mm | - | 18 W/m² | - |
| 1788650512 | 30° C | 77% | 1013.6 hPa | 0 mm | - | 21 W/m² | - |
* Rain latest hour (hover to see other rain measurements)
** Current wind speed in m/s (hover to see current wind gust speed)